Location: Recife
(8.0585°S, 34.8848°W)
Time: 18:31:37
(UTC-03:00)

Explorer 11/Cluster Stage 4 - Pass Details

Date: 20 April 2026
Orbit: 463 x 1174 km, 28.8° (Epoch: 19 May)

Event Time Altitude Azimuth Distance (km) Brightness Sun altitude
Rises 19:24:34 0° 269° (W) 3,653 11.1 -32.4°
Reaches altitude 10° 19:28:03 10° 254° (WSW) 2,568 9.9 -33.2°
Enters shadow 19:31:58 21° 216° (SW) 1,749 8.5 -34.2°
